Tracking 22081 objects as of 4-Dec-2020
HD Live streaming from Space Station
objects crossing your sky now

COSMOS 1897 DEB

Track COSMOS 1897 DEB now!


NORAD ID: 44572
Int'l Code: 1987-096G
Perigee: 35,657.9 km
Apogee: 35,821.7 km
Inclination: 13.6 °
Period: 1,433.3 minutes
Semi major axis: 42110 km
RCS: Unknown
Launch date: November 26, 1987
Source: Commonwealth of Independent States (former USSR) (CIS)
Launch site: TYURATAM MISSILE AND SPACE COMPLEX (TTMTR)

Note: This is SATELLITE DEBRIS
aabbcc
Your satellite tracking list
Your tracking list is empty




NASA's NSSDC Master Catalog

Two Line Element Set (TLE):
1 44572U 87096G   20338.37739137 -.00000275  00000-0  00000-0 0  9993
2 44572  13.5954 341.9815 0019454 249.4489 287.9245  1.00464560 50676
Source of the keplerian elements: AFSPC